| time (UTC) | temp F | wind direction | speed MPH | gust MPH | rain 1hr in | rain 24hr in | rain mn in | humidity % | barometer mb |
| 20260504210023 | 82 | 90 | 10.0 | 15.0 | 0.00 | 0.04 | 0.04 | 81 | 1015.1 |
| 20260504204528 | 82 | 81 | 6.0 | 10.0 | 0.00 | 0.04 | 0.04 | 78 | 1015.1 |
| 20260504203022 | 82 | 74 | 5.0 | 10.0 | 0.00 | 0.04 | 0.04 | 78 | 1015.1 |
| 20260504201520 | 83 | 61 | 4.0 | 8.0 | 0.00 | 0.04 | 0.04 | 78 | 1015.1 |
| 20260504200019 | 82 | 51 | 3.0 | 6.0 | 0.00 | 0.04 | 0.04 | 78 | 1015.1 |
| 20260504194524 | 83 | 35 | 3.0 | 5.0 | 0.00 | 0.04 | 0.04 | 74 | 1015.3 |
| 20260504193020 | 85 | 294 | 3.0 | 8.0 | 0.00 | 0.04 | 0.04 | 71 | 1015.5 |
| 20260504191527 | 87 | 355 | 4.0 | 8.0 | 0.00 | 0.04 | 0.04 | 68 | 1015.6 |
| 20260504190015 | 88 | 274 | 7.0 | 10.0 | 0.00 | 0.04 | 0.04 | 68 | 1015.7 |
| 20260504184518 | 87 | 277 | 6.0 | 9.0 | 0.00 | 0.04 | 0.04 | 68 | 1016.1 |
| 20260504183014 | 88 | 283 | 4.0 | 11.0 | 0.00 | 0.04 | 0.04 | 70 | 1016.2 |
| 20260504181516 | 88 | 305 | 7.0 | 10.0 | 0.00 | 0.04 | 0.04 | 70 | 1016.2 |
| 20260504180016 | 88 | 273 | 6.0 | 11.0 | 0.00 | 0.04 | 0.04 | 69 | 1016.2 |
| 20260504174511 | 88 | 279 | 6.0 | 11.0 | 0.00 | 0.04 | 0.04 | 71 | 1016.3 |
| 20260504173011 | 89 | 273 | 7.0 | 11.0 | 0.00 | 0.04 | 0.04 | 67 | 1016.3 |
| 20260504171540 | 87 | 296 | 8.0 | 11.0 | 0.00 | 0.04 | 0.04 | 69 | 1016.3 |
| 20260504081518 | 78 | 184 | 8.0 | 11.0 | 0.00 | 0.00 | 0.00 | 93 | 1014.8 |
| 20260504050025 | 78 | 194 | 1.0 | 4.0 | 0.00 | 0.00 | 0.00 | 93 | 1016.7 |
| 20260504044525 | 79 | 147 | 1.0 | 4.0 | 0.00 | 0.00 | 0.00 | 92 | 1016.7 |
| 20260504043024 | 79 | 133 | 1.0 | 5.0 | 0.00 | 0.00 | 0.00 | 93 | 1017.0 |
| 20260504041524 | 79 | 147 | 1.0 | 5.0 | 0.00 | 0.00 | 0.00 | 92 | 1017.1 |
| 20260504040037 | 79 | 148 | 1.0 | 3.0 | 0.00 | 0.00 | 0.00 | 92 | 1017.2 |
| 20260504034523 | 79 | 117 | 1.0 | 4.0 | 0.00 | 0.00 | 0.00 | 92 | 1017.2 |
| 20260504033022 | 79 | 162 | 1.0 | 4.0 | 0.00 | 0.00 | 0.00 | 92 | 1017.2 |
| 20260504031521 | 79 | 135 | 1.0 | 5.0 | 0.00 | 0.00 | 0.00 | 92 | 1017.2 |
| 20260504030017 | 79 | 143 | 1.0 | 4.0 | 0.00 | 0.00 | 0.00 | 92 | 1017.1 |
| 20260504024517 | 79 | 144 | 0.0 | 2.0 | 0.00 | 0.00 | 0.00 | 91 | 1017.0 |
| 20260504023016 | 79 | 90 | 0.0 | 2.0 | 0.00 | 0.00 | 0.00 | 91 | 1017.0 |
| 20260504021516 | 79 | 130 | 0.0 | 3.0 | 0.00 | 0.00 | 0.00 | 91 | 1016.9 |
| 20260504020046 | 79 | 126 | 2.0 | 6.0 | 0.00 | 0.00 | 0.00 | 90 | 1016.8 |
| 20260504014557 | 79 | 134 | 1.0 | 5.0 | 0.00 | 0.00 | 0.00 | 90 | 1016.8 |
| 20260504013043 | 79 | 136 | 1.0 | 3.0 | 0.00 | 0.00 | 0.00 | 90 | 1016.6 |
| 20260504011543 | 80 | 102 | 1.0 | 2.0 | 0.00 | 0.00 | 0.00 | 90 | 1016.9 |
| 20260504010050 | 80 | 109 | 0.0 | 2.0 | 0.00 | 0.00 | 0.00 | 90 | 1016.6 |
| 20260504004548 | 79 | 148 | 0.0 | 0.0 | 0.00 | 0.00 | 0.00 | 89 | 1016.5 |
| 20260504003043 | 80 | 169 | 0.0 | 2.0 | 0.00 | 0.00 | 0.00 | 89 | 1016.3 |
| 20260504001530 | 80 | 169 | 0.0 | 0.0 | 0.00 | 0.00 | 0.00 | 88 | 1016.1 |
| 20260504000029 | 81 | 109 | 0.0 | 3.0 | 0.00 | 0.00 | 0.00 | 87 | 1015.8 |
| 20260503234533 | 81 | 121 | 0.0 | 3.0 | 0.00 | 0.00 | 0.00 | 86 | 1015.5 |
| 20260503231529 | 82 | 183 | 1.0 | 3.0 | 0.00 | 0.00 | 0.00 | 82 | 1015.4 |
| 20260503230029 | 83 | 192 | 1.0 | 5.0 | 0.00 | 0.00 | 0.00 | 80 | 1015.5 |
| 20260503224529 | 83 | 236 | 2.0 | 3.0 | 0.00 | 0.00 | 0.00 | 80 | 1015.4 |
| 20260503221528 | 85 | 234 | 3.0 | 7.0 | 0.00 | 0.00 | 0.00 | 78 | 1015.2 |
| 20260503220027 | 85 | 221 | 4.0 | 8.0 | 0.00 | 0.00 | 0.00 | 76 | 1015.2 |
| 20260503214527 | 85 | 227 | 4.0 | 9.0 | 0.00 | 0.00 | 0.00 | 75 | 1015.1 |
| 20260503211535 | 88 | 244 | 5.0 | 10.0 | 0.00 | 0.00 | 0.00 | 72 | 1015.2 |